Regional Weather Roundup
Issued by NWS Pendleton, OR

Home | Current Version | Previous Version | Text Only | Print | Product List | Glossary On
Versions: 1 2 3 4 5 6 7 8 9 10 11 12 13 14 15 16 17 18 19 20 21 22 23 24 25 26 27 28 29 30 31 32 33 34 35 36 37 38 39 40 41 42 43 44 45 46 47 48 49 50
000
ASUS46 KPDT 261725
RWRPDT
PENDLETON REGIONAL WEATHER ROUNDUP
NATIONAL WEATHER SERVICE PENDLETON OREGON
1000 AM PDT SAT MAY 26 2018

NOTE: FAIR INDICATES FEW OR NO CLOUDS BELOW 12,000 FEET WITH NO
SIGNIFICANT WEATHER AND/OR OBSTRUCTIONS TO VISIBILITY.

# INDICATES UNOFFICIAL STATION AND DATA

WAZ520-261810-
EAST SLOPES OF WASHINGTON CASCADES

CITY            SKY/WX      TMP DP  RH  WIND    PRES   REMARKS
#BULLFROG       N/A         54  38  55  W15G29  N/A
#CLE ELUM HS    N/A         53  39  59  SW13    29.98S
#EASTON DOT     N/A         52  40  63  N8      N/A
#ELK HTS DOT    N/A         55  55  100 W12G25  N/A
#GLENWOOD       N/A         58  45  62  S6      29.99S
#NELSON 3SW     N/A         52  39  61  CALM    30.19R
#NILE           N/A         57  40  53  W2      29.32R
#TEANAWAY 4NE   N/A         56  45  66  W2      N/A
#TROUT LAKE 1NE N/A         53  43  69  W14G28  30.01S
#TROUT LAKE 1E  N/A         56  43  62  W2      30.08R
$$

WAZ521-261810-
SIMCOE HIGHLANDS

CITY            SKY/WX      TMP DP  RH  WIND    PRES   REMARKS
#BICKLETON HS   N/A         57  42  57  SW12    29.65R
#SATUS PASS DOT N/A         55  35  47  W26G35  N/A
#CENTERVILLE 1SWN/A         54  41  61  W18     29.98S
#GOLDENDALE 1NE N/A         57  22  25  SW5     N/A
#GOLDENDALE 4W  N/A         57  19  22  W6      30.06S
#GOODNOE HILLS  N/A         60  43  53  W23     29.94R
#LYLE 6NE       N/A         52  44  74  SW15G24 30.06S
#PITT 4SE       N/A         49  41  74  CALM    30.05R
$$

WAZ026-261810-
KITTITAS VALLEY

CITY            SKY/WX      TMP DP  RH  WIND    PRES   REMARKS
ELLENSBURG AP   SUNNY       61  40  46  NW31G43 29.96S
#ELLENSBURG CWU N/A         61  40  46  W18     29.86S
#ELLENSBURG 3NE N/A         58  42  55  N14G26  28.04S
#ELLENSBURG 1E  N/A         60  40  47  N7      29.98R
#KITTITAS 3S    N/A         61  44  53  NW10    29.91R
#MANASTASH RDG  N/A         59  59  100 N16G24  N/A
#ROCKY CYN DOT  N/A         63  42  46  W22G36  N/A
#RYEGRASS DOT   N/A         57  39  51  CALM    N/A
#THORP 6N       N/A         65  50  58  NW1     29.79R
$$

WAZ027-261810-
YAKIMA VALLEY

CITY            SKY/WX      TMP DP  RH  WIND    PRES   REMARKS
SUNNYSIDE AP    SUNNY       65  44  46  W10     29.97R
YAKIMA AIRPORT  SUNNY       68  40  36  N15     29.97R
YAKIMA-VAGABOND SUNNY       67  37  33  W10     29.95S
#DONALD 2NE     N/A         72  13  10  SW7     28.81S
#GRANDVIEW      N/A         67  40  37  W2      29.95S
#MABTON         N/A         66  45  47  W5      29.97S
#MOXEE 2E       N/A         37  N/A N/A SW12    29.79S WCI 29
#NACHES 2SW     N/A         62  44  52  W13     29.97R
#OUTLOOK DOT    N/A         67  38  34  CALM    29.93S
#PARKER DOT     N/A         67  37  33  SE13    29.96S
#TERRACE HTS    N/A         68  41  37  E7      29.89S
#TOPPENISH      N/A         67  43  42  CALM    29.86S
#I82 S UMTANUM RN/A         65  41  41  W2      N/A
#UNION GAP DOT  N/A         67  39  36  NW6     29.99S
#W YAKIMA       N/A         65  43  45  N6      29.92S
#WHITE SWAN 5E  N/A         67  43  42  CALM    29.95S
#WILEY CITY 3W  N/A         70  36  29  CALM    29.93S
#ZILLAH DOT     N/A         68  36  31  W15     N/A
$$

WAZ028-261810-
LOWER COLUMBIA BASIN...WASHINGTON

CITY            SKY/WX      TMP DP  RH  WIND    PRES   REMARKS
HANFORD         MOSUNNY     70  35  28  NW9     29.93R
PASCO           PTCLDY      67  43  42  SW18    29.98R
PROSSER AWOS    N/A         68  46  45  W8      30.00S
RICHLAND AWOS   PTCLDY      71  43  36  S14     29.97S
#BASIN CITY 5SW N/A         68  48  49  S1      29.92S
#BENTON CITY    N/A         67  46  47  W6      29.85S
#CONNELL 5N     N/A         66  48  52  SW7     29.93R
#CONNELL 5NW    N/A         65  49  56  S7      29.88R
#ELTOPIA 6NW    N/A         64  47  54  CALM    28.94R
#KAHLOTUS       N/A         58  44  60  SW10G26 29.93R
#KENNEWICK 3S   N/A         63  45  52  S8      29.96R
#PROSSER DOT    N/A         67  39  36  W7      29.97S
#SAGEMOOR 2W    N/A         65  50  58  S7      29.80S
#TOUCHET 2S     N/A         59  45  60  SW12    29.96R
#WEST PASCO     N/A         68  46  45  CALM    29.97R
$$

WAZ029-261810-
FOOTHILLS OF THE BLUES...WASHINGTON

CITY            SKY/WX      TMP DP  RH  WIND    PRES   REMARKS
WALLA WALLA AP  LGT RAIN    57  40  53  S10     30.02R
#CLYDE 6NW      N/A         58  43  57  SW14G24 29.94R
#DELANEY DOT    N/A         60  36  41  S17G32  N/A
#LOWDEN 2SE     N/A         59  42  53  SW7     29.99R
#PLEASANT VIEW 1N/A         57  42  57  S15     29.96R
#PRESCOTT       N/A         59  43  55  CALM    29.96R
#WHITMAN COLLEGEN/A         56  43  62  SE3     30.04R
#WAITSBURG 6SSE N/A         54  37  52  S5      29.83R
#WAITSBURG 8N   N/A          0  N/A N/A S20     29.79R WCI -22
#WALLA WALLA 5E N/A         54  43  66  SW12    N/A
#WALLA WALLA U  N/A         59  41  51  CALM    29.99R
#WHITMAN MISSIONN/A         59  41  51  S5      30.01R
$$

WAZ030-261810-
BLUE MOUNTAINS...WASHINGTON

CITY            SKY/WX      TMP DP  RH  WIND    PRES   REMARKS
#DIXIE 5SE      N/A         46  40  79  W7      29.95R
$$

ORZ009-041-WAZ024-261810-
COLUMBIA RIVER GORGE

CITY            SKY/WX      TMP DP  RH  WIND    PRES   REMARKS
HOOD RIVER AP   CLOUDY      57  43  59  W3      30.12S
THE DALLES AP   MOSUNNY     64  41  43  W24G32  30.07R
#ARLINGTON AIRPON/A         61  43  51  W18     30.00S
#CELILO DOT     N/A         61  41  48  SW14G28 N/A
#LYLE           N/A         57  45  64  W26G35  30.10R
#MARYHILL       N/A         58  39  49  N28G38  N/A
#MURDOCK        N/A         58  44  60  W21G31  30.02S
#RUFUS DOT      N/A         60  41  49  W23G33  N/A
#SMITHVILLE     N/A         60  45  58  N13G28  30.06R

$$

ORZ510-261810-
NORTH CENTRAL OREGON

CITY            SKY/WX      TMP DP  RH  WIND    PRES   REMARKS
#ANTELOPE       N/A         53  36  52  S5      29.85F
#CHENOWITH 1W   N/A         51  41  68  W39G47  N/A
#COW CYN RST AREN/A         51  33  50  SW8     N/A
#DUFUR          N/A         59  40  49  NW7     30.00R
#DUFUR 9E       N/A         50  39  66  NW23G33 30.09R
#GRASS VALLEY 1SN/A         55  41  59  W15     30.07R
#KENT DOT       N/A         55  32  41  W10     N/A
#SHANIKO 5WSW   N/A         51  32  48  W8      N/A
#SHANIKO 4NW    N/A         49  32  52  W8      30.05R
#TYGH VALLEY 2NEN/A         61  42  50  N2      30.01S
#WAPANITIA AIRPON/A         57  37  47  W9      30.04R
#WASCO DOT      N/A         57  41  55  W18G35  N/A
#WASCO 5NE      N/A         56  42  59  SW15G28 30.00R
$$

ORZ511-261810-
CENTRAL OREGON

CITY            SKY/WX      TMP DP  RH  WIND    PRES   REMARKS
BEND AIRPORT    SUNNY       57  36  45  NW9     30.06F
MADRAS AIRPORT  SUNNY       57  36  45  NW14    30.09S
PRINEVILLE AP   CLOUDY      55  37  51  VRB8    30.07S
REDMOND AIRPORT MOSUNNY     57  41  55  VRB3    30.07S
#ASHWOOD SCHOOL N/A         55  37  51  CALM    30.03S
#BEND-AWBREY    N/A         57  42  57  N3      30.01R
#BEND-KIM LN    N/A         55  41  59  NW6     29.96S
#CULVER         N/A         54  40  59  VRB2    29.84S
#CULVER 8W      N/A         62  36  38  CALM    30.06S
#LAKE BILLY CHINN/A         56  N/A N/A NW2     30.14S
#POWELL BUTTE   N/A         51  40  66  NW3     30.01S
#PRINEVILLE     N/A         55  41  59  N1      30.06F
#PRINEVILLE 3N  N/A         53  40  61  NW1     29.98S
#WARM SPRINGS   N/A         59  39  47  CALM    29.91S

$$


ORZ509-261810-
EAST SLOPES OF OREGON CASCADES

CITY            SKY/WX      TMP DP  RH  WIND    PRES   REMARKS
SISTERS AWOS    N/A         54  39  57  W10     30.04S
#CAMP SHERMAN   N/A         57  38  49  W2      30.08F
#LA PINE 4NW    N/A         50  37  61  CALM    30.05S
#LAVA BUTTE DOT N/A         52  32  46  CALM    N/A
#SISTERS ODOT   N/A         54  37  52  W3      N/A
#SISTERS 3N     N/A         55  38  53  W3      30.09S
#SUNRIVER       N/A         54  41  61  SW2     30.00F
#TUMALO 3W      N/A         52  39  61  N7      29.89S
#WANOGA BUTTE D N/A         44  N/A N/A N3      N/A

$$

ORZ044-261810-
LOWER COLUMBIA BASIN...OREGON

CITY            SKY/WX      TMP DP  RH  WIND    PRES   REMARKS
HERMISTON       PTCLDY      65  40  40  SW20G24 30.01R
#BOARDMAN SCHOOLN/A         63  43  48  SW13    29.98S
#BOARDMAN 8SW   N/A         63  44  50  SW16    29.99S
#ECHO 8SW       N/A         60  40  47  SW16    30.02S
#I-84 EX 198 DOTN/A         59  40  49  NE16G24 N/A
#IONE SCHOOL    N/A         59  40  49  SW9     30.01S
#UMATILLA       N/A         64  42  45  W8      29.92R
$$

ORZ507-261810-
NORTHERN FOOTHILLS OF THE BLUES

CITY            SKY/WX      TMP DP  RH  WIND    PRES   REMARKS
PENDLETON AIRPT CLOUDY      59  33  37  W7      30.02R
#ADAMS 3WNW     N/A         55  38  53  SW3     29.98R
#ATHENA         N/A         53  42  66  S1      30.01R
#CAYUSE         N/A         52  42  69  S10     29.98R
#HELIX SCHOOL   N/A         55  38  53  N7      29.97R
#HELIX 3N       N/A         53  40  61  SW13    30.04R
#HOLDMAN 6E     N/A         54  40  59  SW10    29.78R
#M-F GROVE ELEM N/A         54  42  64  SE1     30.00R
#M-FREEWATER 5SEN/A         52  47  83  CALM    30.03R
#PENDLETON DNTN N/A         60  35  39  E2      N/A
#PDT AQUATIC CTRN/A         58  35  42  CALM    30.02S
#PDT SUNRIDGE   N/A         58  37  45  CALM    30.04R
#PENDLETON 6SE  N/A         54  43  66  S12     29.94R
#PENDLETON 7NW  N/A         59  43  55  CALM    32.35S
#PILOT ROCK     N/A         56  38  51  CALM    30.04R
#TUTUILLA       N/A         52  40  63  CALM    30.06S
#UMAPINE 2E     N/A         59  42  53  CALM    30.00R

$$

ORZ508-261810-
SOUTHERN FOOTHILLS OF THE BLUES

CITY            SKY/WX      TMP DP  RH  WIND    PRES   REMARKS
#AJAX           N/A         54  34  47  CALM    30.19R
#FOSSIL SCHOOL  N/A         54  37  52  NW5     29.99S
#HEPPNER EOC    N/A         54  36  50  W9      29.93R
#HEPPNER 4NE    N/A         51  37  59  W8      29.98R
#LEXINGTON 2SE  N/A         59  38  45  W7      30.01F
#OLEX 4N        N/A         58  42  55  W21G29  30.02R
#RUGGS 5NE      N/A         53  33  46  W7      30.17F
#RUGGS 2SW      N/A         52  35  52  W12     30.00R

$$

ORZ502-503-261810-
BLUE MOUNTAINS

CITY            SKY/WX      TMP DP  RH  WIND    PRES   REMARKS
MEACHAM         LGT RAIN    44  40  86  CALM    30.04R
#BATTLE MTN DOT N/A         43  37  79  CALM    N/A
#GRANITE        N/A         49  39  68  N1      29.68S
#HARDMAN 10S    N/A         45  36  70  CALM    30.07R
#LADD CYN SMT   N/A         52  42  69  W8      N/A
#LADD CREEK ODOTN/A         54  40  59  NE6     N/A
#N POWDER DOT   N/A         56  44  64  NE14    N/A
#PIKES PEAK     N/A         45  38  76  S12     27.99S WCI 39
#SUMMERVILLE 5NWN/A         50  46  86  CALM    26.66R
#TOLLGATE       N/A         38  37  96  SW1     30.07R
#TROY SCHOOL    N/A         58  53  83  CALM    29.76R
#UKIAH          N/A         48  42  80  NW1     29.88R
$$

ORZ505-261810-
JOHN DAY BASIN

CITY            SKY/WX      TMP DP  RH  WIND    PRES   REMARKS
JOHN DAY        CLOUDY      53  43  69  W8      30.04S
#ANTELOPE 9ESE  N/A         59  35  40  W7      N/A
#DAYVILLE SCHOOLN/A         58  37  45  NW7     29.99S
#MITCHELL 8NW   N/A         54  34  47  NW1     30.01R
#MONUMENT HS    N/A         57  39  51  S3      30.00R
#MT. VERNON 5SE N/A         49  41  74  W2      29.99R
#SPRAY SCHOOL   N/A         60  N/A N/A S2      N/A
$$

ORZ506-261810-
OCHOCO AND JOHN DAY HIGHLANDS

CITY            SKY/WX      TMP DP  RH  WIND    PRES   REMARKS
#HORSE RIDGE DO N/A         48  36  63  N8      N/A
#KEYES SMT DOT  N/A         45  30  55  NW10    N/A
#PAULINA ODOT   N/A         53  37  54  W3      N/A
#PINE MTN OBS   N/A         36  35  96  NW6     N/A
#PRAIRIE CITY   N/A         54  47  77  W1      30.16R
#SENECA         N/A         50  N/A N/A N6      N/A
#SENECA 9NW     N/A         48  41  77  CALM    29.89R
$$

ORZ049-261810-
GRANDE RONDE VALLEY

CITY            SKY/WX      TMP DP  RH  WIND    PRES   REMARKS
LA GRANDE       CLOUDY      54  42  64  NW20    30.01S
#COVE SCHOOL    N/A         55  50  83  CALM    30.01S
#COVE 6NW       N/A         55  46  72  NW3     29.92S
#ELGIN 3N       N/A         53  42  66  CALM    29.97S
#IMBLER SCHOOL  N/A         52  44  74  CALM    29.97R
#ISLAND CITY 4N N/A         55  47  74  CALM    30.19F
#LADD CYN DOT   N/A         56  44  64  N7      N/A
#UNION 1S       N/A         55  45  69  N7      29.92S
$$

ORZ050-261810-
WALLOWA COUNTY

CITY            SKY/WX      TMP DP  RH  WIND    PRES   REMARKS
#ENTERPRISE HS  N/A         52  46  80  CALM    29.77R
#IMNAHA 10S     N/A         54  51  90  CALM    29.96R
#JOSEPH         N/A         49  46  89  CALM    30.20R
#JOSEPH 3N      N/A         49  42  77  NW1     30.03S
#JOSEPH 3W      N/A         47  47  100 CALM    29.85S
#LOSTINE        N/A         53  47  80  CALM    29.70S
#LOSTINE 3SE    N/A         53  45  74  E2      30.07R
#MT HOWARD 8000 N/A         40  39  96  N1      30.06R
#PROMISE 1S     N/A         51  46  83  CALM    29.99R
#WALLOWA LAKE   N/A         48  46  93  CALM    30.03S



$$



USA.gov is the U.S. government's official web portal to all federal, state and local government web resources and services.